{"data":{"norad_id":53605,"epoch":"2026-05-25T04:00:03.998880Z","epoch_age_seconds":50811,"freshness":"FRESH","line1":"1 53605U 22104T   26145.16671295  .00644358  00000+0  41046-2 0  9999","line2":"2 53605  53.2170 243.1718 0000931  48.7217 178.5851 15.74027926  5954","mean_motion":15.74027926,"eccentricity":9.31e-5,"inclination_deg":53.217,"raan_deg":243.1718,"arg_perigee_deg":48.7217,"mean_anomaly_deg":178.5851,"bstar":0.0041046,"rev_number":595,"period_min":91.48503506284,"perigee_km":346.77260699562,"apogee_km":348.02490175308,"semimajor_km":6725.5357543743,"source":"CELESTRAK","updated_at":"2026-05-25T13:38:17.476592Z"}}